Theta_e
288 288 287 287 287 287 284 286 283 286 286 290 292 294 295 297 297 297 297 299 300 300 301 301 298 297 296 297 297 300 300 302 303 304 304 303 303 302 303 302 302 303 303 303
284 287 286 284 286 287 288 288 287 288 287 294 296 297 296 296 296 296 298 299 299 299 299 298 297 296 296 296 295 298 300 300 301 302 303 303 302 302 302 301 301 301 301 301
281 284 284 281 285 286 287 289 288 285 290 295 294 295 296 296 297 296 297 298 298 299 299 299 299 297 296 296 295 294 297 299 298 299 301 301 301 301 300 301 301 300 300 301
282 283 276 285 289 288 288 289 291 290 292 294 294 296 296 297 297 297 298 297 297 299 300 300 299 297 296 295 294 294 294 296 297 297 298 299 300 299 300 300 300 300 300 300
280 279 283 285 287 286 284 287 291 290 293 294 295 295 295 297 298 298 298 298 298 299 300 301 298 297 295 295 294 293 293 293 295 295 296 297 297 298 299 298 299 298 298 298
282 276 276 284 288 291 290 284 289 292 292 293 292 289 293 295 297 298 299 299 299 300 299 298 298 297 295 295 295 294 294 294 294 294 294 295 296 296 298 297 296 296 295 295
280 280 283 290 291 291 283 285 289 291 293 292 291 295 295 295 297 297 298 298 299 299 298 299 299 296 295 295 295 296 296 294 293 293 293 294 294 295 295 295 295 295 293 293
281 279 277 290 288 287 290 291 292 293 294 292 294 295 295 296 296 297 297 297 298 297 298 299 298 296 295 295 298 297 296 294 294 294 293 291 293 293 293 293 293 293 293 293
285 286 292 291 292 294 292 292 294 293 295 295 294 295 296 296 297 297 297 297 297 297 297 298 299 297 295 297 298 297 295 294 294 294 293 292 291 292 291 292 291 292 291 291
285 290 290 292 293 294 294 293 294 294 293 293 292 293 294 295 295 295 296 295 296 294 293 294 296 297 297 298 298 296 295 295 295 294 294 293 291 291 291 291 291 290 290 290
286 289 290 291 293 293 293 293 292 292 292 292 292 292 293 293 293 294 294 293 293 292 293 293 295 295 296 296 297 295 295 295 295 294 294 294 293 293 292 293 292 291 291 291
285 292 291 291 290 290 289 290 292 292 292 293 292 291 292 292 293 292 291 292 291 291 291 292 293 294 295 296 296 294 294 294 295 295 294 294 293 293 292 291 291 290 291 291
290 293 292 291 292 293 292 292 292 291 292 290 292 292 292 291 292 292 292 292 291 291 292 292 293 293 295 296 295 294 294 294 295 294 294 294 293 292 291 293 291 291 291 291
291 290 289 292 291 293 291 292 293 291 290 290 291 292 291 291 291 290 290 292 292 293 293 294 294 295 296 295 294 293 293 292 294 294 294 294 293 292 292 291 291 293 291 292
290 292 291 291 290 290 291 290 288 288 289 289 291 290 290 289 289 290 292 292 291 291 292 292 292 293 294 293 293 293 293 294 294 294 294 293 292 291 291 291 290 291 292 289
290 290 289 288 288 288 287 287 287 287 288 288 288 288 289 290 290 291 291 291 289 290 290 290 290 291 291 292 292 292 293 291 292 293 292 292 291 290 290 289 289 289 289 289
285 285 286 285 286 286 286 286 287 287 287 287 287 288 288 288 289 290 290 290 289 289 289 289 289 290 291 290 290 291 291 291 291 291 291 291 290 289 289 289 289 289 288 289
287 287 287 286 285 285 285 286 286 286 286 287 287 287 288 288 289 289 289 289 288 288 289 290 290 290 290 289 289 289 289 289 289 288 289 288 288 288 288 287 286 286 288 288
288 286 287 286 287 286 286 287 287 287 287 287 288 288 288 289 288 288 288 287 287 287 290 290 288 288 289 289 288 289 288 288 287 287 286 286 286 287 287 287 286 287 287 287
290 289 288 288 288 288 288 289 288 288 288 288 288 287 287 288 287 287 287 286 288 290 291 290 288 289 289 289 288 288 288 287 286 286 285 285 285 285 286 287 287 286 287 287
289 290 289 289 289 289 289 289 288 288 288 287 286 287 287 288 288 287 286 287 291 290 290 289 289 289 289 288 288 288 288 287 286 286 285 285 284 285 285 286 286 286 286 285
288 288 289 289 289 289 291 289 289 288 288 288 288 287 287 287 288 288 288 288 292 291 290 290 289 289 289 288 288 288 287 287 286 286 286 285 285 285 285 286 286 286 286 286
287 288 289 289 288 289 289 288 288 288 288 289 288 289 288 289 290 288 288 292 290 290 290 290 289 288 289 289 289 288 288 287 286 286 286 286 285 285 285 286 286 286 286 285
288 288 288 289 290 289 287 289 289 289 288 288 288 289 289 289 290 290 290 291 291 290 290 290 290 289 290 289 289 288 287 287 287 287 287 287 286 286 286 286 285 286 285 285
286 286 287 287 287 287 288 289 289 288 288 288 288 289 289 290 289 290 292 290 289 289 289 290 290 290 289 289 288 287 287 287 287 286 286 286 286 286 286 285 285 285 285 284
286 286 288 288 288 288 289 289 288 289 288 287 289 290 289 289 289 289 289 289 288 287 288 288 287 287 287 287 286 286 286 286 286 286 286 286 285 285 285 285 284 284 284 282
287 288 287 287 288 289 289 288 288 288 289 288 287 289 289 289 289 289 289 288 288 287 286 286 286 286 286 286 286 286 286 286 286 286 285 285 285 285 284 283 283 282 282 281
Wind_Speed
10 11 12 15 15 16 21 22 12 9 16 22 15 15 15 14 15 14 13 10 7 7 7 7 7 6 6 5 4 5 7 6 5 5 5 4 4 5 5 5 5 5 5 4
7 9 10 17 20 23 24 25 29 26 33 25 26 20 16 15 11 10 11 11 11 8 9 8 8 7 6 6 6 5 7 6 5 5 4 4 4 4 4 4 4 4 4 4
5 4 15 17 17 23 19 19 24 24 28 16 21 16 14 13 13 14 15 15 13 11 8 7 8 7 7 7 6 7 8 7 6 5 5 4 4 3 3 4 4 4 4 4
7 10 5 4 7 8 13 20 20 25 26 22 19 18 16 16 17 16 13 10 9 9 8 8 8 7 7 7 8 8 8 8 7 6 6 5 5 5 4 4 4 4 4 4
4 5 15 2 3 3 7 7 18 24 24 21 15 14 17 5 4 7 6 6 6 6 6 6 8 8 9 9 9 9 9 8 7 7 7 6 6 6 5 5 4 4 4 5
2 4 5 3 0 3 3 2 2 11 15 9 3 5 4 2 3 5 6 6 6 5 6 7 8 8 9 10 10 10 9 8 7 7 7 7 6 6 5 5 5 4 4 4
10 7 10 9 6 2 4 4 8 3 7 6 7 8 2 2 5 5 7 8 7 7 8 9 7 8 11 11 13 10 7 7 7 7 8 7 6 6 6 6 6 6 6 5
8 6 11 8 5 7 3 1 3 4 7 9 13 13 10 10 10 10 9 9 8 8 9 8 8 8 11 13 11 8 8 8 9 8 7 6 7 6 6 6 7 7 6 5
10 7 4 7 11 6 4 8 12 11 13 11 13 14 14 13 14 14 12 10 8 8 9 9 9 10 12 15 10 9 9 10 10 9 8 8 8 7 6 6 6 6 5 5
4 10 20 18 18 17 16 17 18 14 14 13 16 17 18 16 14 13 11 10 7 9 11 13 10 11 14 13 11 10 11 12 10 10 9 9 7 7 7 7 6 6 6 6
14 19 22 19 14 15 13 12 13 13 13 14 14 15 15 14 14 11 9 8 8 10 11 12 12 11 11 12 10 11 12 11 10 9 10 10 9 8 8 9 8 7 6 5
12 12 12 12 6 4 11 15 17 18 19 17 14 14 14 12 11 9 10 10 10 11 12 13 13 12 10 9 8 10 10 9 9 8 8 8 8 8 15 17 13 16 15 10
21 19 13 12 15 20 22 20 18 15 15 17 16 12 13 11 9 9 10 10 10 10 9 9 10 10 8 8 8 10 11 10 7 8 8 8 7 7 8 8 17 18 19 18
14 12 22 19 17 12 14 19 18 16 16 16 17 14 12 11 9 10 10 9 7 8 8 8 8 9 6 5 6 8 9 10 7 7 7 7 8 8 7 8 8 8 16 17
14 14 14 20 17 19 15 16 18 16 16 14 12 14 15 13 11 10 7 6 6 7 7 6 7 7 4 4 5 6 6 6 6 6 7 8 7 7 7 8 9 9 6 8
14 16 14 14 19 16 15 16 17 16 13 12 12 12 13 11 8 7 6 5 5 6 6 6 8 7 4 4 4 4 5 8 8 6 6 6 6 7 7 8 8 8 7 7
11 12 15 18 15 17 17 15 15 15 15 13 12 11 8 6 6 7 7 6 7 8 8 7 8 4 4 4 4 4 4 4 6 6 6 6 6 7 7 7 7 7 7 6
7 11 12 13 15 16 16 15 13 14 12 10 8 6 5 6 7 6 5 4 6 8 8 8 6 4 4 4 4 4 4 5 5 6 5 6 7 7 6 6 6 6 7 7
6 8 11 11 11 11 11 11 10 10 8 5 4 4 4 5 5 5 4 5 7 8 5 4 6 6 6 5 5 4 5 5 6 6 6 9 8 8 7 6 6 7 6 6
11 8 9 10 10 8 12 10 8 6 6 5 5 5 6 6 5 6 4 7 7 7 4 5 6 7 7 7 7 5 5 6 7 6 5 5 6 7 7 10 8 7 6 6
14 12 12 11 12 12 9 10 10 8 5 5 6 7 6 6 4 4 5 6 5 6 7 9 8 7 5 6 5 5 6 7 7 7 7 7 6 6 7 7 7 7 6 5
11 11 12 12 12 13 11 9 9 9 8 6 6 6 6 8 7 7 9 10 8 9 5 5 6 9 7 9 6 6 7 8 7 7 7 7 7 6 7 6 6 6 5 5
11 12 13 12 13 14 14 12 10 9 10 10 9 9 8 8 6 5 8 7 8 7 6 6 8 11 14 8 7 7 8 8 7 7 7 7 7 7 6 6 5 5 5 4
12 14 15 13 14 13 14 16 10 9 10 10 10 10 9 8 9 8 10 12 13 11 9 8 9 14 14 6 7 7 6 7 7 7 7 10 6 6 6 6 5 4 4 5
13 14 14 13 13 11 13 13 12 11 11 11 11 9 11 9 10 9 8 6 11 9 8 11 14 15 8 7 6 6 6 6 6 6 7 7 7 6 6 5 4 3 3 3
13 11 13 15 12 11 11 9 10 9 8 9 9 8 7 7 7 8 7 10 7 8 7 6 5 6 6 5 5 5 7 7 7 7 7 6 7 6 5 4 3 3 2 2
12 16 11 11 10 10 9 9 10 11 8 8 11 8 8 8 7 7 9 7 6 6 5 5 5 6 4 5 5 5 5 5 6 6 6 6 6 4 3 2 2 2 2 3
Wind_Direction
270 268 254 258 251 218 215 224 230 256 238 265 270 276 275 283 287 289 283 282 289 277 262 244 239 247 255 262 271 287 287 292 319 334 343 342 349 348 343 348 346 347 351 1
276 273 268 265 253 243 239 236 249 260 271 275 278 280 275 272 278 274 282 275 284 267 250 238 231 234 243 253 257 267 275 288 303 302 312 330 335 332 336 331 332 334 345 345
269 295 300 274 257 235 235 234 235 244 249 269 273 274 283 286 281 287 285 285 283 273 256 237 227 217 225 233 240 252 258 258 265 283 291 304 306 300 308 312 320 333 337 334
287 318 247 56 263 237 239 243 235 247 257 260 272 291 294 280 279 283 292 290 273 263 249 233 219 213 225 228 235 242 251 256 256 263 271 279 286 289 291 311 317 323 334 339
270 276 294 274 40 138 197 284 227 237 254 265 281 301 287 284 255 257 282 287 281 278 265 242 219 214 219 230 237 243 250 248 248 249 260 268 273 281 286 286 289 306 323 329
210 275 259 23 120 192 195 284 20 227 250 264 207 273 336 209 224 282 289 289 292 282 252 238 227 214 227 242 244 244 245 243 245 248 255 260 267 273 275 272 281 281 284 294
242 269 278 260 195 128 282 26 343 307 280 210 207 233 359 249 270 271 284 290 286 271 260 256 244 222 235 246 246 248 244 240 242 247 253 262 272 271 275 276 274 272 275 273
201 241 263 154 117 207 54 251 325 295 262 248 259 286 281 278 275 281 281 286 275 266 262 260 243 230 245 250 258 249 240 238 243 244 243 250 252 260 254 258 265 271 272 272
216 227 260 195 245 240 258 282 284 293 282 285 276 273 277 281 284 278 272 281 270 250 265 260 240 225 241 251 253 244 238 240 243 240 240 240 245 250 256 251 255 262 259 267
281 249 251 255 251 260 265 266 280 284 277 279 273 281 279 278 280 275 274 270 262 270 268 266 251 233 237 249 243 233 236 238 240 237 241 236 231 233 238 242 249 255 256 256
253 267 274 273 261 268 271 268 269 271 257 266 268 267 267 278 279 275 277 278 278 272 263 260 270 262 256 249 242 233 237 239 237 231 231 237 231 235 233 241 232 239 240 244
256 277 262 290 316 306 292 284 284 284 288 280 265 260 269 262 263 267 279 287 284 277 275 277 276 274 266 263 246 241 243 242 238 233 232 232 237 241 226 238 227 234 242 239
252 276 287 298 286 286 282 281 285 286 277 279 279 266 262 255 265 274 282 278 277 281 282 280 276 273 273 260 241 236 238 242 239 233 242 244 239 245 259 224 233 236 233 231
265 287 289 284 296 311 295 288 284 277 273 271 272 275 259 253 260 261 263 271 277 283 286 286 285 284 298 291 260 249 251 254 258 255 247 245 242 242 244 248 251 240 225 230
266 274 267 296 295 296 296 288 286 280 284 279 266 261 265 249 241 253 257 258 264 268 269 269 277 282 296 287 264 263 255 253 252 255 252 251 252 250 249 249 254 259 253 221
305 297 299 284 300 307 307 300 290 287 287 283 281 271 257 248 250 253 251 247 248 261 270 273 273 280 281 281 279 269 261 258 265 267 267 260 256 254 253 251 252 255 255 247
307 320 327 313 314 313 310 300 290 285 290 286 280 276 258 235 239 250 252 239 245 260 266 264 268 273 272 276 277 280 279 280 272 268 261 257 253 255 260 262 264 266 264 255
294 288 295 290 296 303 307 309 300 289 280 282 276 258 226 211 237 258 264 278 278 277 267 260 254 249 255 254 259 273 280 286 286 281 282 273 268 260 253 244 243 246 256 252
341 320 318 310 307 300 298 311 324 320 312 311 300 265 261 265 270 277 282 274 274 281 283 214 219 240 254 258 267 275 277 283 284 285 286 290 284 276 264 248 245 244 247 250
326 319 323 321 320 310 308 309 314 323 318 310 297 293 289 283 274 274 277 271 260 258 269 237 229 244 247 248 256 265 268 268 270 278 273 263 263 270 271 263 257 252 246 244
320 322 321 331 324 315 303 303 303 299 296 289 271 270 269 277 261 255 271 279 266 224 239 246 236 240 238 239 247 259 265 270 271 276 275 276 270 264 264 263 258 251 246 240
310 310 308 314 315 306 311 302 291 287 283 270 256 261 273 275 263 252 236 239 273 244 249 242 236 233 235 239 242 249 256 262 270 276 277 276 270 263 262 258 255 256 246 242
298 295 300 299 299 297 301 290 279 261 264 261 258 252 242 253 251 250 272 237 231 247 238 247 242 239 242 237 237 240 249 254 257 263 271 269 263 262 263 259 252 245 245 236
293 294 292 287 288 286 285 290 285 270 256 257 253 251 247 260 261 231 252 265 269 258 255 257 249 242 241 238 239 239 248 255 257 259 265 274 266 263 256 252 246 233 232 238
287 289 283 280 278 277 283 287 288 282 277 270 263 254 250 244 242 270 270 256 254 252 261 261 256 255 250 238 234 244 249 251 251 257 264 265 272 267 258 249 242 234 231 218
285 284 286 288 285 283 281 283 276 281 283 278 276 272 262 256 253 253 253 257 252 253 253 258 250 251 240 239 240 245 256 260 262 263 265 269 266 260 250 244 232 232 200 188
282 277 284 288 277 274 270 270 276 276 271 268 276 277 268 268 266 265 266 265 258 256 255 249 238 237 229 237 244 247 250 253 255 264 263 265 259 246 224 216 202 193 154 152